Hourly Data Report for October 26, 2019

PINAWA
MANITOBA
Current Station Operator: ECCC - MSC

50°10'38.020" N
96°03'53.000" W
268.00 m
503B1ER
71448
WEA

Download Data

Hourly Data (October 2019)
Hourly Data Report for October 26, 2019
TIME
LST
Temp Definition
°C
Dew Point Definition
°C
Rel Hum Definition
%
Precip. Amount Definition
mm

Wind Dir Definition
10's deg

Wind Spd Definition
km/h
Visibility Definition
km
Stn Press Definition
kPa
Hmdx Definition


Wind Chill Definition


Weather Definition


00:00 9.5 LegendMM LegendMM 0.0 16 14   96.75     LegendNANA
01:00 8.7 LegendMM LegendMM 0.0 16 13   96.64     LegendNANA
02:00 9.2 LegendMM LegendMM 0.0 16 13   96.57     LegendNANA
03:00 9.0 LegendMM LegendMM 0.0 16 12   96.50     LegendNANA
04:00 9.2 LegendMM LegendMM 0.0 17 11   96.41     LegendNANA
05:00 9.7 LegendMM LegendMM 0.0 18 12   96.42     LegendNANA
06:00 9.6 LegendMM LegendMM 0.0 18 10   96.40     LegendNANA
07:00 9.6 LegendMM LegendMM 0.0 19 10   96.44     LegendNANA
08:00 9.3 LegendMM LegendMM 0.0 20 7   96.55     LegendNANA
09:00 9.8 LegendMM LegendMM 0.0 20 8   96.61     LegendNANA
10:00 11.0 LegendMM LegendMM 0.0 25 12   96.67     LegendNANA
11:00 11.2 LegendMM LegendMM 0.0 24 14   96.74     LegendNANA
12:00 12.3 LegendMM LegendMM 0.0 24 12   96.78     LegendNANA
13:00 10.2 LegendMM LegendMM 0.0 28 18   96.87     LegendNANA
14:00 8.6 LegendMM LegendMM 0.0 29 24   96.99     LegendNANA
15:00 8.2 LegendMM LegendMM 0.0 29 21   97.03     LegendNANA
16:00 7.0 LegendMM LegendMM 0.0 29 21   97.16     LegendNANA
17:00 6.1 LegendMM LegendMM 0.0 29 18   97.26     LegendNANA
18:00 4.8 LegendMM LegendMM 0.0 31 22   97.37     LegendNANA
19:00 4.4 LegendMM LegendMM 0.0 29 18   97.49     LegendNANA
20:00 3.8 LegendMM LegendMM 0.0 31 19   97.54     LegendNANA
21:00 3.3 LegendMM LegendMM 0.0 32 17   97.58     LegendNANA
22:00 2.9 LegendMM LegendMM 0.0 30 19   97.60     LegendNANA
23:00 2.6 LegendMM LegendMM 0.0 31 22   97.65     LegendNANA

Notes on Data Quality.

Legend

  • E = Estimated
  • M = Missing
  • NA = Not Available*
  • [empty] = Indicates an unobserved value
Date modified: